Weather History for Whiting Fld NAS, FL

Change the Weather History Date:

Monday, September 16, 2013

  Actual Average Record
Temperature  
Mean Temperature 80 °F -  
Max Temperature 93 °F 84 °F 93 °F (1997)
Min Temperature 69 °F 67 °F 61 °F (2007)
Cooling Degree Days 15    
Growing Degree Days 30 (Base 50)    
Moisture  
Dew Point 70 °F    
Average Humidity 79    
Maximum Humidity 94    
Minimum Humidity 45    
Precipitation  
Precipitation 0.37 in - - ()
Sea Level Pressure  
Sea Level Pressure 30.02 in    
Wind  
Wind Speed 3 mph (NNW)    
Max Wind Speed 14 mph    
Max Gust Speed 26 mph    
Visibility 6 miles    
Events Rain , Thunderstorm    
Averages and records for this station are not official NWS values.
T = Trace of Precipitation, MM = Missing Value Source: NWS Daily Summary

Daily Weather History Graph

Daily Weather History Graph

Search for Another Location

Airport:

Trip Planner

Search our weather history database for the weather conditions in past years. The results will help you decide how hot, cold, wet, or windy it might be!

Date:

Astronomy

Sep. 16, 2013 Rise Set
Actual Time 6:33 AM CDT 6:52 PM CDT
Civil Twilight 6:08 AM CDT 7:16 PM CDT
Nautical Twilight 5:40 AM CDT 7:44 PM CDT
Astronomical Twilight 5:12 AM CDT 8:12 PM CDT
Moon 4:53 PM CDT (9/16) 3:28 AM CDT (9/16)
Length of Visible Light 13h 07m
Length of Day
12h 18m
Waxing Gibbous, 90% of the Moon is Illuminated
Sep 16
Waxing Gibbous
Sep 19
Full
Sep 26
Last Quarter
Oct 4
New
Oct 11
First Quarter

Hourly Weather History & Observations

Time (CDT) Temp. Heat Index Dew Point Humidity Pressure Visibility Wind Dir Wind Speed Gust Speed Precip Events Conditions
12:56 AM 73.0 °F - 70.0 °F 90% 30.02 in 4.0 mi Calm Calm - N/A   Clear
1:56 AM 72.0 °F - 69.1 °F 91% 30.02 in 3.0 mi Calm Calm - N/A   Clear
2:56 AM 72.0 °F - 68.0 °F 87% 30.00 in 3.0 mi NNW 3.5 mph - N/A   Clear
3:49 AM 69.8 °F - 66.2 °F 88% 30.05 in 2.0 mi Calm Calm - 0.00 in   Clear
3:56 AM 71.1 °F - 68.0 °F 90% 30.00 in 1.0 mi Calm Calm - 0.00 in   Clear
4:04 AM 69.8 °F - 68.0 °F 94% 30.05 in 0.8 mi Calm Calm - N/A   Clear
4:11 AM 71.6 °F - 68.0 °F 88% 30.05 in 2.0 mi NNE 3.5 mph - N/A   Clear
4:34 AM 73.4 °F - 69.8 °F 88% 30.05 in 3.0 mi NNE 3.5 mph - N/A   Clear
4:56 AM 73.0 °F - 69.1 °F 87% 30.01 in 3.0 mi Calm Calm - N/A   Clear
5:09 AM 71.6 °F - 68.0 °F 88% 30.06 in 2.5 mi Calm Calm - N/A   Clear
5:42 AM 73.4 °F - 69.8 °F 88% 30.05 in 3.0 mi Calm Calm - N/A   Clear
5:56 AM 72.0 °F - 69.1 °F 91% 30.01 in 3.0 mi Calm Calm - N/A   Mostly Cloudy
6:56 AM 73.0 °F - 69.1 °F 87% 30.01 in 4.0 mi NNE 3.5 mph - N/A   Mostly Cloudy
7:56 AM 77.0 °F - 72.0 °F 84% 30.04 in 6.0 mi Calm Calm - N/A   Haze
8:56 AM 82.0 °F 87.4 °F 73.0 °F 74% 30.04 in 9.0 mi NE 5.8 mph - N/A   Mostly Cloudy
9:56 AM 84.0 °F 90.2 °F 73.0 °F 69% 30.05 in 10.0 mi Variable 5.8 mph - N/A   Mostly Cloudy
10:56 AM 88.0 °F 95.6 °F 73.0 °F 61% 30.05 in 10.0 mi Variable 4.6 mph - N/A   Mostly Cloudy
11:56 AM 91.0 °F 97.6 °F 71.1 °F 52% 30.04 in 10.0 mi NE 5.8 mph - N/A   Mostly Cloudy
12:56 PM 91.0 °F 96.6 °F 70.0 °F 50% 30.02 in 9.0 mi Variable 5.8 mph - N/A   Mostly Cloudy
1:56 PM 91.9 °F 95.9 °F 68.0 °F 45% 30.01 in 10.0 mi Calm Calm - N/A   Mostly Cloudy
2:20 PM 89.6 °F 96.2 °F 71.6 °F 55% 30.04 in 10.0 mi South 10.4 mph - N/A   Mostly Cloudy
2:56 PM 90.0 °F 96.9 °F 72.0 °F 55% 29.98 in 10.0 mi SSW 6.9 mph - N/A   Mostly Cloudy
3:56 PM 90.0 °F 96.9 °F 72.0 °F 55% 29.96 in 10.0 mi South 8.1 mph - N/A   Mostly Cloudy
4:56 PM 87.1 °F 93.6 °F 72.0 °F 61% 29.96 in 10.0 mi SSW 9.2 mph - N/A   Mostly Cloudy
5:25 PM 87.8 °F 95.6 °F 73.4 °F 62% 30.01 in 10.0 mi SSW 5.8 mph - N/A Thunderstorm Thunderstorm
5:56 PM 75.9 °F - 69.1 °F 79% 29.99 in 4.0 mi North 13.8 mph 21.9 mph 0.04 in Rain , Thunderstorm Thunderstorms and Rain
6:02 PM 73.4 °F - 69.8 °F 88% 30.03 in 1.0 mi NNW 12.7 mph 26.5 mph 0.21 in Rain , Thunderstorm Heavy Thunderstorms and Rain
6:10 PM 73.4 °F - 69.8 °F 88% 30.04 in 0.5 mi NW 11.5 mph - 0.32 in Rain , Thunderstorm Heavy Thunderstorms and Rain
6:16 PM 73.4 °F - 69.8 °F 88% 30.03 in 2.0 mi NNW 6.9 mph - 0.33 in Rain , Thunderstorm Thunderstorms and Rain
6:38 PM 73.4 °F - 71.6 °F 94% 30.05 in 8.0 mi North 3.5 mph - 0.33 in Rain , Thunderstorm Light Thunderstorms and Rain
6:56 PM 73.9 °F - 72.0 °F 93% 30.01 in 7.0 mi Calm Calm - 0.33 in Rain , Thunderstorm Light Thunderstorms and Rain
7:24 PM 75.2 °F - 71.6 °F 89% 30.05 in 8.0 mi SSE 6.9 mph - 0.00 in Rain Light Rain
7:56 PM 75.0 °F - 72.0 °F 90% 30.02 in 10.0 mi SSW 9.2 mph - 0.00 in   Overcast
8:56 PM 75.0 °F - 71.1 °F 87% 30.03 in 10.0 mi Calm Calm - N/A   Overcast
9:56 PM 73.9 °F - 71.1 °F 91% 30.01 in 10.0 mi NW 4.6 mph - N/A   Mostly Cloudy
10:56 PM 73.9 °F - 70.0 °F 87% 30.01 in 10.0 mi Calm Calm - N/A   Scattered Clouds
11:56 PM 73.9 °F - 70.0 °F 87% 30.01 in 9.0 mi Calm Calm - N/A   Mostly Cloudy